Time,TemperatureF,DewpointF,PressureIn,WindDirection,WindDirectionDegrees,WindSpeedMPH,WindSpeedGustMPH,Humidity,HourlyPrecipIn,Conditions,Clouds,dailyrainin,SoftwareType,DateUTC
2013-02-05 00:00:00,48.6,38.5,30.01,NNE,30,0.0,1.0,68,0.00,,SKC,0.00,VWS V14.01,2013-02-05 07:00:00,
2013-02-05 00:02:00,48.6,38.5,30.01,NNE,30,0.0,1.0,68,0.00,,SKC,0.00,VWS V14.01,2013-02-05 07:02:00,
2013-02-05 00:07:00,48.5,38.4,30.00,NNE,30,0.0,0.0,68,0.00,,SKC,0.00,VWS V14.01,2013-02-05 07:07:00,
2013-02-05 00:12:00,48.6,38.5,30.00,NNE,30,0.0,0.0,68,0.00,,SKC,0.00,VWS V14.01,2013-02-05 07:12:00,
2013-02-05 00:15:00,48.6,38.5,30.00,NNE,30,0.0,0.0,68,0.00,,SKC,0.00,VWS V14.01,2013-02-05 07:15:00,
2013-02-05 00:17:00,48.6,38.5,30.01,NNE,30,0.0,0.0,68,0.00,,SKC,0.00,VWS V14.01,2013-02-05 07:17:00,
2013-02-05 00:22:00,48.5,38.4,30.01,NNE,30,0.0,0.0,68,0.00,,SKC,0.00,VWS V14.01,2013-02-05 07:22:00,
2013-02-05 00:27:00,48.4,38.7,30.01,NNE,30,0.0,0.0,69,0.00,,SKC,0.00,VWS V14.01,2013-02-05 07:27:00,
2013-02-05 00:30:00,48.2,38.5,30.01,NNE,30,0.0,0.0,69,0.00,,SKC,0.00,VWS V14.01,2013-02-05 07:30:00,
2013-02-05 00:32:00,48.2,38.5,30.01,NNE,30,0.0,0.0,69,0.00,,SKC,0.00,VWS V14.01,2013-02-05 07:32:00,
2013-02-05 00:38:00,48.0,38.7,30.01,NNE,30,0.0,0.0,70,0.00,,SKC,0.00,VWS V14.01,2013-02-05 07:38:00,
2013-02-05 00:43:00,47.8,38.5,30.01,NNE,30,0.0,0.0,70,0.00,,SKC,0.00,VWS V14.01,2013-02-05 07:43:00,
2013-02-05 00:45:00,47.6,38.7,30.01,NNE,30,0.0,0.0,71,0.00,,SKC,0.00,VWS V14.01,2013-02-05 07:45:00,
2013-02-05 00:48:00,47.5,38.6,30.01,NNE,30,0.0,0.0,71,0.00,,SKC,0.00,VWS V14.01,2013-02-05 07:48:00,
2013-02-05 00:53:00,47.3,38.7,30.00,NNE,30,0.0,0.0,72,0.00,,SKC,0.00,VWS V14.01,2013-02-05 07:53:00,
2013-02-05 00:58:00,47.0,38.5,30.00,NNE,30,0.0,0.0,72,0.00,,SKC,0.00,VWS V14.01,2013-02-05 07:58:00,
2013-02-05 01:00:00,46.8,38.3,30.01,NNE,30,0.0,0.0,72,0.00,,SKC,0.00,VWS V14.01,2013-02-05 08:00:00,
2013-02-05 01:03:00,46.8,38.3,30.01,NNE,30,0.0,0.0,72,0.00,,SKC,0.00,VWS V14.01,2013-02-05 08:03:00,
2013-02-05 01:08:00,46.5,38.3,30.00,NNE,30,0.0,0.0,73,0.00,,SKC,0.00,VWS V14.01,2013-02-05 08:08:00,
2013-02-05 01:13:00,46.2,38.0,30.00,NNE,30,0.0,0.0,73,0.00,,SKC,0.00,VWS V14.01,2013-02-05 08:13:00,
2013-02-05 01:15:00,46.0,38.2,30.00,NNE,30,0.0,0.0,74,0.00,,SKC,0.00,VWS V14.01,2013-02-05 08:15:00,
2013-02-05 01:18:00,46.0,38.2,30.00,NNE,30,0.0,0.0,74,0.00,,SKC,0.00,VWS V14.01,2013-02-05 08:18:00,
2013-02-05 01:23:00,45.9,38.1,30.00,NNE,30,0.0,0.0,74,0.00,,SKC,0.00,VWS V14.01,2013-02-05 08:23:00,
2013-02-05 01:28:00,46.0,38.2,30.00,NNE,30,0.0,0.0,74,0.00,,SKC,0.00,VWS V14.01,2013-02-05 08:28:00,
2013-02-05 01:30:00,45.9,38.1,30.00,NNE,30,0.0,0.0,74,0.00,,SKC,0.00,VWS V14.01,2013-02-05 08:30:00,
2013-02-05 01:33:00,45.9,38.1,30.00,NNE,30,0.0,0.0,74,0.00,,SKC,0.00,VWS V14.01,2013-02-05 08:33:00,
2013-02-05 01:38:00,46.1,38.3,30.00,NNE,30,0.0,1.0,74,0.00,,SKC,0.00,VWS V14.01,2013-02-05 08:38:00,
2013-02-05 01:44:00,46.4,38.2,30.00,NNE,30,0.0,1.0,73,0.00,,SKC,0.00,VWS V14.01,2013-02-05 08:44:00,
2013-02-05 01:45:00,46.5,38.3,30.00,NNE,30,0.0,1.0,73,0.00,,SKC,0.00,VWS V14.01,2013-02-05 08:45:00,
2013-02-05 01:49:00,46.5,38.3,30.00,NNE,30,0.0,0.0,73,0.00,,SKC,0.00,VWS V14.01,2013-02-05 08:49:00,
2013-02-05 01:54:00,46.6,38.4,30.00,NNE,30,0.0,0.0,73,0.00,,SKC,0.00,VWS V14.01,2013-02-05 08:54:00,
2013-02-05 01:59:00,46.5,38.3,30.00,NNE,30,0.0,0.0,73,0.00,,SKC,0.00,VWS V14.01,2013-02-05 08:59:00,
2013-02-05 02:00:00,46.4,38.2,30.00,NNE,30,0.0,0.0,73,0.00,,SKC,0.00,VWS V14.01,2013-02-05 09:00:00,
2013-02-05 02:04:00,46.4,38.2,30.00,NNE,30,0.0,0.0,73,0.00,,SKC,0.00,VWS V14.01,2013-02-05 09:04:00,
2013-02-05 02:09:00,46.0,38.2,30.00,NNE,30,0.0,1.0,74,0.00,,SKC,0.00,VWS V14.01,2013-02-05 09:09:00,
2013-02-05 02:14:00,45.8,38.0,30.00,NNE,30,0.0,1.0,74,0.00,,SKC,0.00,VWS V14.01,2013-02-05 09:14:00,
2013-02-05 02:15:00,45.6,37.8,30.00,NNE,30,0.0,1.0,74,0.00,,SKC,0.00,VWS V14.01,2013-02-05 09:15:00,
2013-02-05 02:19:00,45.5,37.7,30.00,NNE,30,0.0,0.0,74,0.00,,SKC,0.00,VWS V14.01,2013-02-05 09:19:00,
2013-02-05 02:24:00,45.2,37.4,30.00,NNE,30,0.0,0.0,74,0.00,,SKC,0.00,VWS V14.01,2013-02-05 09:24:00,
2013-02-05 02:29:00,44.8,37.4,30.00,NNE,30,0.0,0.0,75,0.00,,SKC,0.00,VWS V14.01,2013-02-05 09:29:00,
2013-02-05 02:30:00,44.6,37.5,30.00,NNE,30,0.0,0.0,76,0.00,,SKC,0.00,VWS V14.01,2013-02-05 09:30:00,
2013-02-05 02:34:00,44.5,37.4,29.99,NNE,30,0.0,0.0,76,0.00,,SKC,0.00,VWS V14.01,2013-02-05 09:34:00,
2013-02-05 02:39:00,44.2,37.5,30.00,NNE,30,0.0,0.0,77,0.00,,SKC,0.00,VWS V14.01,2013-02-05 09:39:00,
2013-02-05 02:44:00,44.1,37.4,29.99,NNE,30,0.0,0.0,77,0.00,,SKC,0.00,VWS V14.01,2013-02-05 09:44:00,
2013-02-05 02:45:00,44.0,37.6,29.99,NNE,30,0.0,0.0,78,0.00,,SKC,0.00,VWS V14.01,2013-02-05 09:45:00,
2013-02-05 02:50:00,44.0,37.6,29.99,NNE,30,0.0,0.0,78,0.00,,SKC,0.00,VWS V14.01,2013-02-05 09:50:00,
2013-02-05 02:55:00,43.9,37.5,29.99,NNE,30,0.0,0.0,78,0.00,,SKC,0.00,VWS V14.01,2013-02-05 09:55:00,
2013-02-05 03:00:00,44.0,37.6,30.00,NNE,30,0.0,0.0,78,0.00,,SKC,0.00,VWS V14.01,2013-02-05 10:00:00,
2013-02-05 03:05:00,44.0,37.6,30.00,NNE,30,0.0,0.0,78,0.00,,SKC,0.00,VWS V14.01,2013-02-05 10:05:00,
2013-02-05 03:10:00,44.2,37.8,30.00,NNE,30,0.0,0.0,78,0.00,,SKC,0.00,VWS V14.01,2013-02-05 10:10:00,
2013-02-05 03:15:00,44.2,37.8,30.00,NNE,30,0.0,0.0,78,0.00,,SKC,0.00,VWS V14.01,2013-02-05 10:15:00,
2013-02-05 03:20:00,44.0,37.6,30.00,NNE,30,0.0,0.0,78,0.00,,SKC,0.00,VWS V14.01,2013-02-05 10:20:00,
2013-02-05 03:25:00,43.8,37.4,30.00,NNE,30,0.0,0.0,78,0.00,,SKC,0.00,VWS V14.01,2013-02-05 10:25:00,
2013-02-05 03:30:00,43.7,37.3,30.00,NNE,30,0.0,0.0,78,0.00,,SKC,0.00,VWS V14.01,2013-02-05 10:30:00,
2013-02-05 03:35:00,43.5,37.4,30.00,NNE,30,0.0,0.0,79,0.00,,SKC,0.00,VWS V14.01,2013-02-05 10:35:00,
2013-02-05 03:40:00,43.4,37.3,30.00,NNE,30,0.0,0.0,79,0.00,,SKC,0.00,VWS V14.01,2013-02-05 10:40:00,
2013-02-05 03:45:00,43.3,37.2,30.00,NNE,30,0.0,0.0,79,0.00,,SKC,0.00,VWS V14.01,2013-02-05 10:45:00,
2013-02-05 03:50:00,43.2,37.1,29.99,NNE,30,0.0,0.0,79,0.00,,SKC,0.00,VWS V14.01,2013-02-05 10:50:00,
2013-02-05 03:56:00,42.9,36.8,30.00,NNE,30,0.0,0.0,79,0.00,,SKC,0.00,VWS V14.01,2013-02-05 10:56:00,
2013-02-05 04:00:00,42.6,36.9,29.99,NNE,30,0.0,0.0,80,0.00,,SKC,0.00,VWS V14.01,2013-02-05 11:00:00,
2013-02-05 04:01:00,42.6,36.9,30.00,NNE,30,0.0,0.0,80,0.00,,SKC,0.00,VWS V14.01,2013-02-05 11:01:00,
2013-02-05 04:06:00,42.5,36.8,29.99,NNE,30,0.0,0.0,80,0.00,,SKC,0.00,VWS V14.01,2013-02-05 11:06:00,
2013-02-05 04:11:00,42.4,36.7,29.99,NNE,30,0.0,0.0,80,0.00,,SKC,0.00,VWS V14.01,2013-02-05 11:11:00,
2013-02-05 04:15:00,42.3,36.9,29.99,NNE,30,0.0,0.0,81,0.00,,SKC,0.00,VWS V14.01,2013-02-05 11:15:00,
2013-02-05 04:16:00,42.3,36.9,29.99,NNE,30,0.0,0.0,81,0.00,,SKC,0.00,VWS V14.01,2013-02-05 11:16:00,
2013-02-05 04:21:00,42.2,36.8,29.99,NNE,30,0.0,0.0,81,0.00,,SKC,0.00,VWS V14.01,2013-02-05 11:21:00,
2013-02-05 04:26:00,42.2,36.8,29.99,NNE,30,0.0,0.0,81,0.00,,SKC,0.00,VWS V14.01,2013-02-05 11:26:00,
2013-02-05 04:30:00,42.4,37.0,30.00,NNE,30,0.0,0.0,81,0.00,,SKC,0.00,VWS V14.01,2013-02-05 11:30:00,
2013-02-05 04:31:00,42.4,37.0,29.99,NNE,30,0.0,0.0,81,0.00,,SKC,0.00,VWS V14.01,2013-02-05 11:31:00,
2013-02-05 04:36:00,42.3,36.9,29.99,NNE,30,0.0,0.0,81,0.00,,SKC,0.00,VWS V14.01,2013-02-05 11:36:00,
2013-02-05 04:41:00,42.1,36.7,29.99,NNE,30,0.0,0.0,81,0.00,,SKC,0.00,VWS V14.01,2013-02-05 11:41:00,
2013-02-05 04:45:00,42.0,36.6,30.00,NNE,30,0.0,0.0,81,0.00,,SKC,0.00,VWS V14.01,2013-02-05 11:45:00,
2013-02-05 04:46:00,42.0,36.6,30.00,NNE,30,0.0,0.0,81,0.00,,SKC,0.00,VWS V14.01,2013-02-05 11:46:00,
2013-02-05 04:51:00,41.9,36.5,29.99,NNE,30,0.0,0.0,81,0.00,,SKC,0.00,VWS V14.01,2013-02-05 11:51:00,
2013-02-05 04:57:00,41.9,36.5,29.99,NNE,30,0.0,0.0,81,0.00,,SKC,0.00,VWS V14.01,2013-02-05 11:57:00,
2013-02-05 05:00:00,41.9,36.5,29.99,NNE,30,0.0,0.0,81,0.00,,SKC,0.00,VWS V14.01,2013-02-05 12:00:00,
2013-02-05 05:02:00,41.9,36.5,29.99,NNE,30,0.0,0.0,81,0.00,,SKC,0.00,VWS V14.01,2013-02-05 12:02:00,
2013-02-05 05:07:00,41.9,36.5,29.99,NNE,30,0.0,0.0,81,0.00,,SKC,0.00,VWS V14.01,2013-02-05 12:07:00,
2013-02-05 05:12:00,42.0,36.6,29.99,NNE,30,0.0,0.0,81,0.00,,SKC,0.00,VWS V14.01,2013-02-05 12:12:00,
2013-02-05 05:15:00,41.9,36.2,29.99,NNE,30,0.0,0.0,80,0.00,,SKC,0.00,VWS V14.01,2013-02-05 12:15:00,
2013-02-05 05:17:00,41.9,36.2,29.99,NNE,30,0.0,0.0,80,0.00,,SKC,0.00,VWS V14.01,2013-02-05 12:17:00,
2013-02-05 05:22:00,41.7,36.3,29.99,NNE,30,0.0,0.0,81,0.00,,SKC,0.00,VWS V14.01,2013-02-05 12:22:00,
2013-02-05 05:27:00,41.6,36.5,29.99,NNE,30,0.0,0.0,82,0.00,,SKC,0.00,VWS V14.01,2013-02-05 12:27:00,
2013-02-05 05:30:00,41.6,36.2,29.99,NNE,30,0.0,0.0,81,0.00,,SKC,0.00,VWS V14.01,2013-02-05 12:30:00,
2013-02-05 05:32:00,41.6,36.2,29.99,NNE,30,0.0,0.0,81,0.00,,SKC,0.00,VWS V14.01,2013-02-05 12:32:00,
2013-02-05 05:37:00,41.6,36.2,29.99,NNE,30,0.0,0.0,81,0.00,,SKC,0.00,VWS V14.01,2013-02-05 12:37:00,
2013-02-05 05:42:00,41.5,36.1,29.99,NNE,30,0.0,0.0,81,0.00,,SKC,0.00,VWS V14.01,2013-02-05 12:42:00,
2013-02-05 05:45:00,41.6,36.2,30.00,NNE,30,0.0,0.0,81,0.00,,SKC,0.00,VWS V14.01,2013-02-05 12:45:00,
2013-02-05 05:47:00,41.6,36.2,30.00,NNE,30,0.0,0.0,81,0.00,,SKC,0.00,VWS V14.01,2013-02-05 12:47:00,
2013-02-05 05:52:00,41.5,36.1,30.00,NNE,30,0.0,0.0,81,0.00,,SKC,0.00,VWS V14.01,2013-02-05 12:52:00,
2013-02-05 05:57:00,41.3,35.9,30.00,NNE,30,0.0,0.0,81,0.00,,SKC,0.00,VWS V14.01,2013-02-05 12:57:00,
2013-02-05 06:00:00,41.1,35.7,30.00,NNE,30,0.0,0.0,81,0.00,,SKC,0.00,VWS V14.01,2013-02-05 13:00:00,
2013-02-05 06:03:00,41.1,35.7,30.00,NNE,30,0.0,0.0,81,0.00,,SKC,0.00,VWS V14.01,2013-02-05 13:03:00,
2013-02-05 06:08:00,40.9,35.5,30.00,NNE,30,0.0,0.0,81,0.00,,SKC,0.00,VWS V14.01,2013-02-05 13:08:00,
2013-02-05 06:13:00,40.7,35.3,30.00,NNE,30,0.0,0.0,81,0.00,,SKC,0.00,VWS V14.01,2013-02-05 13:13:00,
2013-02-05 06:15:00,40.5,35.5,30.00,NNE,30,0.0,0.0,82,0.00,,SKC,0.00,VWS V14.01,2013-02-05 13:15:00,
2013-02-05 06:18:00,40.4,35.3,30.00,NNE,30,0.0,0.0,82,0.00,,SKC,0.00,VWS V14.01,2013-02-05 13:18:00,
2013-02-05 06:23:00,40.3,35.2,30.00,NNE,30,0.0,0.0,82,0.00,,SKC,0.00,VWS V14.01,2013-02-05 13:23:00,
2013-02-05 06:28:00,40.2,35.5,30.00,NNE,30,0.0,0.0,83,0.00,,SKC,0.00,VWS V14.01,2013-02-05 13:28:00,
2013-02-05 06:30:00,40.2,35.5,30.00,NNE,30,0.0,0.0,83,0.00,,SKC,0.00,VWS V14.01,2013-02-05 13:30:00,
2013-02-05 06:33:00,40.2,35.5,30.00,NNE,30,0.0,0.0,83,0.00,,SKC,0.00,VWS V14.01,2013-02-05 13:33:00,
2013-02-05 06:38:00,40.3,35.6,30.01,NNE,30,0.0,0.0,83,0.00,,SKC,0.00,VWS V14.01,2013-02-05 13:38:00,
2013-02-05 06:43:00,40.7,36.2,30.01,NNE,30,0.0,0.0,84,0.00,,SKC,0.00,VWS V14.01,2013-02-05 13:43:00,
2013-02-05 06:45:00,40.9,36.1,30.00,NNE,30,0.0,0.0,83,0.00,,SKC,0.00,VWS V14.01,2013-02-05 13:45:00,
2013-02-05 06:48:00,40.9,36.1,30.00,NNE,30,0.0,0.0,83,0.00,,SKC,0.00,VWS V14.01,2013-02-05 13:48:00,
2013-02-05 06:53:00,41.0,36.2,30.01,NNE,30,0.0,0.0,83,0.00,,SKC,0.00,VWS V14.01,2013-02-05 13:53:00,
2013-02-05 06:59:00,41.1,36.0,30.01,NNE,30,0.0,0.0,82,0.00,,SKC,0.00,VWS V14.01,2013-02-05 13:59:00,
2013-02-05 07:00:00,41.1,36.0,30.01,NNE,30,0.0,1.0,82,0.00,,SKC,0.00,VWS V14.01,2013-02-05 14:00:00,
2013-02-05 07:04:00,41.0,35.9,30.01,NNE,30,0.0,0.0,82,0.00,,SKC,0.00,VWS V14.01,2013-02-05 14:04:00,
2013-02-05 07:09:00,40.7,35.6,30.01,NNE,30,0.0,0.0,82,0.00,,SKC,0.00,VWS V14.01,2013-02-05 14:09:00,
2013-02-05 07:14:00,40.5,35.5,30.01,NNE,30,0.0,0.0,82,0.00,,SKC,0.00,VWS V14.01,2013-02-05 14:14:00,
2013-02-05 07:15:00,40.4,35.3,30.01,NNE,30,0.0,0.0,82,0.00,,SKC,0.00,VWS V14.01,2013-02-05 14:15:00,
2013-02-05 07:19:00,40.4,35.3,30.01,NNE,30,0.0,0.0,82,0.00,,SKC,0.00,VWS V14.01,2013-02-05 14:19:00,
2013-02-05 07:24:00,40.3,35.2,30.01,NNE,30,0.0,0.0,82,0.00,,SKC,0.00,VWS V14.01,2013-02-05 14:24:00,
2013-02-05 07:29:00,40.3,35.2,30.01,NNE,30,0.0,2.0,82,0.00,,SKC,0.00,VWS V14.01,2013-02-05 14:29:00,
2013-02-05 07:30:00,40.5,35.5,30.01,NNE,30,0.0,2.0,82,0.00,,SKC,0.00,VWS V14.01,2013-02-05 14:30:00,
2013-02-05 07:34:00,40.6,35.5,30.01,NNE,30,2.0,2.0,82,0.00,,SKC,0.00,VWS V14.01,2013-02-05 14:34:00,
2013-02-05 07:39:00,41.0,35.6,30.02,NNE,30,2.0,3.0,81,0.00,,SKC,0.00,VWS V14.01,2013-02-05 14:39:00,
2013-02-05 07:44:00,41.5,36.1,30.02,NNE,30,2.0,3.0,81,0.00,,SKC,0.00,VWS V14.01,2013-02-05 14:44:00,
2013-02-05 07:45:00,42.0,36.3,30.02,NNE,30,1.0,3.0,80,0.00,,SKC,0.00,VWS V14.01,2013-02-05 14:45:00,
2013-02-05 07:49:00,42.3,36.6,30.02,NNE,30,0.0,1.0,80,0.00,,SKC,0.00,VWS V14.01,2013-02-05 14:49:00,
2013-02-05 07:54:00,42.9,36.8,30.02,NNE,30,0.0,1.0,79,0.00,,SKC,0.00,VWS V14.01,2013-02-05 14:54:00,
2013-02-05 07:59:00,43.4,36.7,30.02,NNE,30,1.0,4.0,77,0.00,,SKC,0.00,VWS V14.01,2013-02-05 14:59:00,
2013-02-05 08:00:00,43.6,36.9,30.02,NNE,30,0.0,4.0,77,0.00,,SKC,0.00,VWS V14.01,2013-02-05 15:00:00,
2013-02-05 08:04:00,43.8,37.1,30.02,NNE,30,0.0,0.0,77,0.00,,SKC,0.00,VWS V14.01,2013-02-05 15:04:00,
2013-02-05 08:09:00,44.6,37.5,30.02,NNE,30,0.0,0.0,76,0.00,,SKC,0.00,VWS V14.01,2013-02-05 15:09:00,
2013-02-05 08:15:00,45.4,37.6,30.02,NNE,30,0.0,4.0,74,0.00,,SKC,0.00,VWS V14.01,2013-02-05 15:15:00,
2013-02-05 08:20:00,46.1,37.9,30.02,NNE,30,0.0,3.0,73,0.00,,SKC,0.00,VWS V14.01,2013-02-05 15:20:00,
2013-02-05 08:25:00,47.2,38.7,30.02,South,173,0.0,4.0,72,0.00,,SKC,0.00,VWS V14.01,2013-02-05 15:25:00,
2013-02-05 08:30:00,48.2,38.5,30.02,South,182,0.0,4.0,69,0.00,,SKC,0.00,VWS V14.01,2013-02-05 15:30:00,
2013-02-05 08:35:00,48.8,38.7,30.02,South,184,0.0,3.0,68,0.00,,SKC,0.00,VWS V14.01,2013-02-05 15:35:00,
2013-02-05 08:40:00,49.5,39.0,30.03,South,188,4.0,4.0,67,0.00,,SKC,0.00,VWS V14.01,2013-02-05 15:40:00,
2013-02-05 08:45:00,49.9,38.6,30.03,South,187,2.0,6.0,65,0.00,,SKC,0.00,VWS V14.01,2013-02-05 15:45:00,
2013-02-05 08:50:00,50.6,39.3,30.03,South,183,0.0,1.0,65,0.00,,SKC,0.00,VWS V14.01,2013-02-05 15:50:00,
2013-02-05 08:55:00,51.5,39.3,30.03,South,169,0.0,3.0,63,0.00,,SKC,0.00,VWS V14.01,2013-02-05 15:55:00,
2013-02-05 09:00:00,52.0,39.4,30.03,SSE,167,1.0,3.0,62,0.00,,SKC,0.00,VWS V14.01,2013-02-05 16:00:00,
2013-02-05 09:05:00,52.4,39.4,30.03,South,177,0.0,4.0,61,0.00,,SKC,0.00,VWS V14.01,2013-02-05 16:05:00,
2013-02-05 09:10:00,53.0,39.5,30.03,South,178,0.0,5.0,60,0.00,,SKC,0.00,VWS V14.01,2013-02-05 16:10:00,
2013-02-05 09:15:00,53.6,40.1,30.02,South,181,3.0,5.0,60,0.00,,SKC,0.00,VWS V14.01,2013-02-05 16:15:00,
2013-02-05 09:20:00,54.4,40.4,30.03,SSW,198,4.0,4.0,59,0.00,,SKC,0.00,VWS V14.01,2013-02-05 16:20:00,
2013-02-05 09:25:00,55.1,40.2,30.02,South,173,3.0,5.0,57,0.00,,SKC,0.00,VWS V14.01,2013-02-05 16:25:00,
2013-02-05 09:30:00,55.7,40.3,30.02,SSE,165,1.0,5.0,56,0.00,,SKC,0.00,VWS V14.01,2013-02-05 16:30:00,
2013-02-05 09:35:00,56.1,40.2,30.02,SSE,153,4.0,5.0,55,0.00,,SKC,0.00,VWS V14.01,2013-02-05 16:35:00,
2013-02-05 09:41:00,56.9,40.4,30.02,South,176,2.0,6.0,54,0.00,,SKC,0.00,VWS V14.01,2013-02-05 16:41:00,
2013-02-05 09:45:00,57.6,40.6,30.02,South,181,3.0,6.0,53,0.00,,SKC,0.00,VWS V14.01,2013-02-05 16:45:00,
2013-02-05 09:46:00,57.5,40.5,30.02,SSE,167,3.0,6.0,53,0.00,,SKC,0.00,VWS V14.01,2013-02-05 16:46:00,
2013-02-05 09:51:00,58.1,40.6,30.02,South,188,2.0,5.0,52,0.00,,SKC,0.00,VWS V14.01,2013-02-05 16:51:00,
2013-02-05 09:56:00,58.5,40.5,30.02,SSW,205,3.0,6.0,51,0.00,,SKC,0.00,VWS V14.01,2013-02-05 16:56:00,
2013-02-05 10:00:00,58.7,40.6,30.01,SSW,194,2.0,7.0,51,0.00,,SKC,0.00,VWS V14.01,2013-02-05 17:00:00,
2013-02-05 10:01:00,58.7,40.6,30.02,South,171,2.0,7.0,51,0.00,,SKC,0.00,VWS V14.01,2013-02-05 17:01:00,
2013-02-05 10:06:00,59.0,40.4,30.02,SSW,213,7.0,9.0,50,0.00,,SKC,0.00,VWS V14.01,2013-02-05 17:06:00,
2013-02-05 10:11:00,59.0,40.4,30.02,SSW,203,5.0,9.0,50,0.00,,SKC,0.00,VWS V14.01,2013-02-05 17:11:00,
2013-02-05 10:15:00,59.9,40.7,30.01,SSE,153,3.0,9.0,49,0.00,,SKC,0.00,VWS V14.01,2013-02-05 17:15:00,
2013-02-05 10:16:00,59.7,41.0,30.01,South,175,1.0,9.0,50,0.00,,SKC,0.00,VWS V14.01,2013-02-05 17:16:00,
2013-02-05 10:21:00,60.1,40.4,30.01,South,184,7.0,7.0,48,0.00,,SKC,0.00,VWS V14.01,2013-02-05 17:21:00,
2013-02-05 10:26:00,60.6,40.8,30.01,South,179,1.0,7.0,48,0.00,,SKC,0.00,VWS V14.01,2013-02-05 17:26:00,
2013-02-05 10:30:00,61.2,41.4,30.01,SSE,163,0.0,7.0,48,0.00,,SKC,0.00,VWS V14.01,2013-02-05 17:30:00,
2013-02-05 10:31:00,61.1,40.7,30.01,SSE,164,0.0,7.0,47,0.00,,SKC,0.00,VWS V14.01,2013-02-05 17:31:00,
2013-02-05 10:36:00,62.1,41.1,30.01,South,184,2.0,7.0,46,0.00,,SKC,0.00,VWS V14.01,2013-02-05 17:36:00,
2013-02-05 10:41:00,62.2,40.6,30.01,SSW,199,5.0,7.0,45,0.00,,SKC,0.00,VWS V14.01,2013-02-05 17:41:00,
2013-02-05 10:45:00,62.3,41.3,30.01,South,186,8.0,8.0,46,0.00,,SKC,0.00,VWS V14.01,2013-02-05 17:45:00,
2013-02-05 10:46:00,62.2,41.2,30.01,SSW,200,2.0,7.0,46,0.00,,SKC,0.00,VWS V14.01,2013-02-05 17:46:00,
2013-02-05 10:51:00,62.6,41.0,30.01,SSW,194,7.0,8.0,45,0.00,,SKC,0.00,VWS V14.01,2013-02-05 17:51:00,
2013-02-05 10:57:00,62.9,41.3,30.01,South,172,0.0,8.0,45,0.00,,SKC,0.00,VWS V14.01,2013-02-05 17:57:00,
2013-02-05 11:00:00,63.5,41.2,30.01,SSE,147,0.0,8.0,44,0.00,,SKC,0.00,VWS V14.01,2013-02-05 18:00:00,
2013-02-05 11:02:00,63.4,41.1,30.01,SE,136,0.0,8.0,44,0.00,,SKC,0.00,VWS V14.01,2013-02-05 18:02:00,
2013-02-05 11:07:00,64.0,41.1,30.01,SSW,195,0.0,5.0,43,0.00,,SKC,0.00,VWS V14.01,2013-02-05 18:07:00,
2013-02-05 11:12:00,64.3,41.3,30.01,South,183,3.0,6.0,43,0.00,,SKC,0.00,VWS V14.01,2013-02-05 18:12:00,
2013-02-05 11:15:00,64.5,40.9,30.00,South,188,3.0,6.0,42,0.00,,SKC,0.00,VWS V14.01,2013-02-05 18:15:00,
2013-02-05 11:17:00,64.5,40.9,30.00,South,189,3.0,6.0,42,0.00,,SKC,0.00,VWS V14.01,2013-02-05 18:17:00,
2013-02-05 11:22:00,64.9,41.3,30.00,SSE,151,3.0,4.0,42,0.00,,SKC,0.00,VWS V14.01,2013-02-05 18:22:00,
2013-02-05 11:27:00,65.3,41.0,30.00,SSE,148,0.0,4.0,41,0.00,,SKC,0.00,VWS V14.01,2013-02-05 18:27:00,
2013-02-05 11:30:00,65.8,41.5,30.00,South,175,0.0,5.0,41,0.00,,SKC,0.00,VWS V14.01,2013-02-05 18:30:00,
2013-02-05 11:32:00,65.8,41.5,30.00,South,175,0.0,5.0,41,0.00,,SKC,0.00,VWS V14.01,2013-02-05 18:32:00,
2013-02-05 11:37:00,66.6,41.5,30.00,SSW,192,4.0,4.0,40,0.00,,SKC,0.00,VWS V14.01,2013-02-05 18:37:00,
2013-02-05 11:42:00,67.0,41.9,30.00,South,190,2.0,4.0,40,0.00,,SKC,0.00,VWS V14.01,2013-02-05 18:42:00,
2013-02-05 11:45:00,67.3,41.5,29.99,South,179,0.0,5.0,39,0.00,,SKC,0.00,VWS V14.01,2013-02-05 18:45:00,
2013-02-05 11:47:00,67.3,41.5,29.99,South,180,0.0,0.0,39,0.00,,SKC,0.00,VWS V14.01,2013-02-05 18:47:00,
2013-02-05 11:52:00,67.3,41.5,29.99,SSE,166,0.0,3.0,39,0.00,,SKC,0.00,VWS V14.01,2013-02-05 18:52:00,
2013-02-05 11:57:00,67.9,42.1,29.99,South,176,0.0,4.0,39,0.00,,SKC,0.00,VWS V14.01,2013-02-05 18:57:00,
2013-02-05 12:00:00,68.3,42.4,29.98,South,188,0.0,6.0,39,0.00,,SKC,0.00,VWS V14.01,2013-02-05 19:00:00,
2013-02-05 12:02:00,68.3,42.4,29.98,South,188,1.0,1.0,39,0.00,,SKC,0.00,VWS V14.01,2013-02-05 19:02:00,
2013-02-05 12:07:00,68.6,42.0,29.98,South,174,0.0,4.0,38,0.00,,SKC,0.00,VWS V14.01,2013-02-05 19:07:00,
2013-02-05 12:12:00,68.8,42.2,29.98,SSE,150,0.0,5.0,38,0.00,,SKC,0.00,VWS V14.01,2013-02-05 19:12:00,
2013-02-05 12:15:00,69.4,42.0,29.98,SSE,159,0.0,5.0,37,0.00,,SKC,0.00,VWS V14.01,2013-02-05 19:15:00,
2013-02-05 12:17:00,69.4,42.0,29.98,SSE,159,0.0,0.0,37,0.00,,SKC,0.00,VWS V14.01,2013-02-05 19:17:00,
2013-02-05 12:23:00,70.0,42.6,29.97,SSE,167,0.0,2.0,37,0.00,,SKC,0.00,VWS V14.01,2013-02-05 19:23:00,
2013-02-05 12:28:00,70.5,41.6,29.97,SSW,194,5.0,10.0,35,0.00,,SKC,0.00,VWS V14.01,2013-02-05 19:28:00,
2013-02-05 12:30:00,70.2,41.3,29.97,South,172,0.0,10.0,35,0.00,,SKC,0.00,VWS V14.01,2013-02-05 19:30:00,
2013-02-05 12:33:00,70.3,41.4,29.97,South,171,0.0,0.0,35,0.00,,SKC,0.00,VWS V14.01,2013-02-05 19:33:00,
2013-02-05 12:38:00,70.6,41.7,29.96,South,171,0.0,1.0,35,0.00,,SKC,0.00,VWS V14.01,2013-02-05 19:38:00,
2013-02-05 12:43:00,70.7,41.7,29.96,ESE,113,0.0,3.0,35,0.00,,SKC,0.00,VWS V14.01,2013-02-05 19:43:00,
2013-02-05 12:45:00,71.3,42.3,29.96,ESE,109,0.0,3.0,35,0.00,,SKC,0.00,VWS V14.01,2013-02-05 19:45:00,
2013-02-05 12:48:00,71.4,41.6,29.95,ESE,102,0.0,1.0,34,0.00,,SKC,0.00,VWS V14.01,2013-02-05 19:48:00,
2013-02-05 12:53:00,71.7,41.1,29.95,South,179,3.0,4.0,33,0.00,,SKC,0.00,VWS V14.01,2013-02-05 19:53:00,
2013-02-05 12:58:00,71.3,40.7,29.95,SSE,161,0.0,6.0,33,0.00,,SKC,0.00,VWS V14.01,2013-02-05 19:58:00,
2013-02-05 13:00:00,71.7,41.1,29.95,South,169,0.0,6.0,33,0.00,,SKC,0.00,VWS V14.01,2013-02-05 20:00:00,
2013-02-05 13:03:00,71.9,41.3,29.95,West,279,4.0,4.0,33,0.00,,SKC,0.00,VWS V14.01,2013-02-05 20:03:00,
2013-02-05 13:08:00,71.9,41.3,29.95,WSW,248,0.0,4.0,33,0.00,,SKC,0.00,VWS V14.01,2013-02-05 20:08:00,
2013-02-05 13:13:00,71.7,40.3,29.94,West,259,0.0,4.0,32,0.00,,SKC,0.00,VWS V14.01,2013-02-05 20:13:00,
2013-02-05 13:15:00,71.5,40.9,29.94,ESE,114,0.0,4.0,33,0.00,,SKC,0.00,VWS V14.01,2013-02-05 20:15:00,
2013-02-05 13:18:00,71.4,40.8,29.94,ESE,114,0.0,0.0,33,0.00,,SKC,0.00,VWS V14.01,2013-02-05 20:18:00,
2013-02-05 13:24:00,71.7,41.1,29.94,NNW,337,0.0,3.0,33,0.00,,SKC,0.00,VWS V14.01,2013-02-05 20:24:00,
2013-02-05 13:29:00,72.7,42.0,29.93,WSW,243,0.0,3.0,33,0.00,,SKC,0.00,VWS V14.01,2013-02-05 20:29:00,
2013-02-05 13:30:00,72.6,41.1,29.93,WSW,238,0.0,6.0,32,0.00,,SKC,0.00,VWS V14.01,2013-02-05 20:30:00,
2013-02-05 13:34:00,72.4,40.9,29.92,South,169,4.0,6.0,32,0.00,,SKC,0.00,VWS V14.01,2013-02-05 20:34:00,
2013-02-05 13:39:00,71.3,40.7,29.92,SSW,194,5.0,8.0,33,0.00,,SKC,0.00,VWS V14.01,2013-02-05 20:39:00,
2013-02-05 13:44:00,71.0,40.5,29.92,South,183,0.0,8.0,33,0.00,,SKC,0.00,VWS V14.01,2013-02-05 20:44:00,
2013-02-05 13:45:00,71.4,40.8,29.92,South,182,0.0,8.0,33,0.00,,SKC,0.00,VWS V14.01,2013-02-05 20:45:00,
2013-02-05 13:49:00,71.8,41.2,29.92,South,182,0.0,0.0,33,0.00,,SKC,0.00,VWS V14.01,2013-02-05 20:49:00,
2013-02-05 13:54:00,72.7,41.2,29.92,WNW,300,2.0,6.0,32,0.00,,SKC,0.00,VWS V14.01,2013-02-05 20:54:00,
2013-02-05 13:59:00,73.0,41.4,29.91,NW,309,6.0,9.0,32,0.00,,SKC,0.00,VWS V14.01,2013-02-05 20:59:00,
2013-02-05 14:00:00,72.7,41.2,29.91,NNW,340,3.0,9.0,32,0.00,,SKC,0.00,VWS V14.01,2013-02-05 21:00:00,
2013-02-05 14:04:00,72.7,41.2,29.91,WNW,298,0.0,3.0,32,0.00,,SKC,0.00,VWS V14.01,2013-02-05 21:04:00,
2013-02-05 14:09:00,73.3,41.7,29.91,NNW,342,4.0,5.0,32,0.00,,SKC,0.00,VWS V14.01,2013-02-05 21:09:00,
2013-02-05 14:14:00,73.4,41.8,29.91,NW,318,3.0,5.0,32,0.00,,SKC,0.00,VWS V14.01,2013-02-05 21:14:00,
2013-02-05 14:15:00,73.5,41.0,29.90,WSW,252,0.0,5.0,31,0.00,,SKC,0.00,VWS V14.01,2013-02-05 21:15:00,
2013-02-05 14:20:00,73.5,41.0,29.90,WSW,245,0.0,4.0,31,0.00,,SKC,0.00,VWS V14.01,2013-02-05 21:20:00,
2013-02-05 14:25:00,73.4,41.0,29.90,WSW,246,2.0,6.0,31,0.00,,SKC,0.00,VWS V14.01,2013-02-05 21:25:00,
2013-02-05 14:30:00,73.0,40.6,29.90,WSW,250,0.0,8.0,31,0.00,,SKC,0.00,VWS V14.01,2013-02-05 21:30:00,
2013-02-05 14:35:00,73.1,41.5,29.90,NNW,330,0.0,5.0,32,0.00,,SKC,0.00,VWS V14.01,2013-02-05 21:35:00,
2013-02-05 14:40:00,73.0,41.4,29.90,NW,313,0.0,9.0,32,0.00,,SKC,0.00,VWS V14.01,2013-02-05 21:40:00,
2013-02-05 14:45:00,73.1,41.5,29.89,NW,321,1.0,9.0,32,0.00,,SKC,0.00,VWS V14.01,2013-02-05 21:45:00,
2013-02-05 14:50:00,73.3,40.9,29.89,West,268,4.0,5.0,31,0.00,,SKC,0.00,VWS V14.01,2013-02-05 21:50:00,
2013-02-05 14:55:00,73.3,40.9,29.89,WNW,296,0.0,6.0,31,0.00,,SKC,0.00,VWS V14.01,2013-02-05 21:55:00,
2013-02-05 15:00:00,73.3,40.9,29.89,NW,309,1.0,7.0,31,0.00,,SKC,0.00,VWS V14.01,2013-02-05 22:00:00,
2013-02-05 15:05:00,73.2,40.8,29.89,WSW,242,0.0,6.0,31,0.00,,SKC,0.00,VWS V14.01,2013-02-05 22:05:00,
2013-02-05 15:10:00,73.2,39.9,29.89,WNW,292,2.0,6.0,30,0.00,,SKC,0.00,VWS V14.01,2013-02-05 22:10:00,
2013-02-05 15:15:00,73.6,40.3,29.89,NW,323,4.0,6.0,30,0.00,,SKC,0.00,VWS V14.01,2013-02-05 22:15:00,
2013-02-05 15:20:00,73.6,40.3,29.89,NW,323,0.0,0.0,30,0.00,,SKC,0.00,VWS V14.01,2013-02-05 22:20:00,
2013-02-05 15:25:00,74.2,39.9,29.89,NNW,336,0.0,1.0,29,0.00,,SKC,0.00,VWS V14.01,2013-02-05 22:25:00,
2013-02-05 15:30:00,74.1,39.8,29.88,NNW,337,4.0,6.0,29,0.00,,SKC,0.00,VWS V14.01,2013-02-05 22:30:00,
2013-02-05 15:36:00,73.8,39.6,29.88,NE,41,0.0,4.0,29,0.00,,SKC,0.00,VWS V14.01,2013-02-05 22:36:00,
2013-02-05 15:41:00,74.1,39.8,29.88,NNW,333,0.0,7.0,29,0.00,,SKC,0.00,VWS V14.01,2013-02-05 22:41:00,
2013-02-05 15:45:00,74.4,40.1,29.88,NE,50,5.0,7.0,29,0.00,,SKC,0.00,VWS V14.01,2013-02-05 22:45:00,
2013-02-05 15:46:00,74.5,40.2,29.88,NNW,336,5.0,7.0,29,0.00,,SKC,0.00,VWS V14.01,2013-02-05 22:46:00,
2013-02-05 15:51:00,73.8,40.5,29.88,NNE,30,6.0,7.0,30,0.00,,SKC,0.00,VWS V14.01,2013-02-05 22:51:00,
2013-02-05 15:56:00,73.3,40.0,29.88,NNE,32,1.0,7.0,30,0.00,,SKC,0.00,VWS V14.01,2013-02-05 22:56:00,
2013-02-05 16:00:00,72.3,39.2,29.88,NNE,32,5.0,7.0,30,0.00,,SKC,0.00,VWS V14.01,2013-02-05 23:00:00,
2013-02-05 16:01:00,72.5,39.3,29.88,ESE,107,3.0,7.0,30,0.00,,SKC,0.00,VWS V14.01,2013-02-05 23:01:00,
2013-02-05 16:06:00,72.5,42.6,29.88,North,355,5.0,13.0,34,0.00,,SKC,0.00,VWS V14.01,2013-02-05 23:06:00,
2013-02-05 16:11:00,72.0,42.1,29.88,NNE,15,13.0,13.0,34,0.00,,SKC,0.00,VWS V14.01,2013-02-05 23:11:00,
2013-02-05 16:15:00,71.8,42.7,29.88,NNW,328,6.0,13.0,35,0.00,,SKC,0.00,VWS V14.01,2013-02-05 23:15:00,
2013-02-05 16:16:00,71.8,42.7,29.88,North,355,8.0,13.0,35,0.00,,SKC,0.00,VWS V14.01,2013-02-05 23:16:00,
2013-02-05 16:21:00,71.6,42.5,29.88,NNW,331,8.0,11.0,35,0.00,,SKC,0.00,VWS V14.01,2013-02-05 23:21:00,
2013-02-05 16:26:00,71.5,42.4,29.88,NNW,342,6.0,13.0,35,0.00,,SKC,0.00,VWS V14.01,2013-02-05 23:26:00,
2013-02-05 16:30:00,71.0,42.7,29.89,NNW,347,8.0,13.0,36,0.00,,SKC,0.00,VWS V14.01,2013-02-05 23:30:00,
2013-02-05 16:31:00,71.1,42.1,29.89,NNE,16,8.0,13.0,35,0.00,,SKC,0.00,VWS V14.01,2013-02-05 23:31:00,
2013-02-05 16:36:00,70.8,42.5,29.89,North,360,5.0,9.0,36,0.00,,SKC,0.00,VWS V14.01,2013-02-05 23:36:00,
2013-02-05 16:41:00,70.9,42.6,29.89,NNW,345,4.0,11.0,36,0.00,,SKC,0.00,VWS V14.01,2013-02-05 23:41:00,
2013-02-05 16:45:00,70.6,42.4,29.88,NNE,29,3.0,12.0,36,0.00,,SKC,0.00,VWS V14.01,2013-02-05 23:45:00,
2013-02-05 16:47:00,70.6,42.4,29.88,North,350,6.0,12.0,36,0.00,,SKC,0.00,VWS V14.01,2013-02-05 23:47:00,
2013-02-05 16:52:00,70.3,42.8,29.89,NNE,23,11.0,11.0,37,0.00,,SKC,0.00,VWS V14.01,2013-02-05 23:52:00,
2013-02-05 16:57:00,69.9,42.5,29.89,NNE,28,5.0,11.0,37,0.00,,SKC,0.00,VWS V14.01,2013-02-05 23:57:00,
2013-02-05 17:00:00,69.4,42.7,29.89,North,355,8.0,11.0,38,0.00,,SKC,0.00,VWS V14.01,2013-02-06 00:00:00,
2013-02-05 17:02:00,69.5,42.8,29.89,North,355,6.0,11.0,38,0.00,,SKC,0.00,VWS V14.01,2013-02-06 00:02:00,
2013-02-05 17:07:00,69.0,42.4,29.89,NNE,14,7.0,11.0,38,0.00,,SKC,0.00,VWS V14.01,2013-02-06 00:07:00,
2013-02-05 17:12:00,69.0,43.0,29.89,North,355,1.0,11.0,39,0.00,,SKC,0.00,VWS V14.01,2013-02-06 00:12:00,
2013-02-05 17:15:00,68.8,42.9,29.89,NNE,15,4.0,12.0,39,0.00,,SKC,0.00,VWS V14.01,2013-02-06 00:15:00,
2013-02-05 17:17:00,68.8,42.9,29.89,NNE,32,8.0,12.0,39,0.00,,SKC,0.00,VWS V14.01,2013-02-06 00:17:00,
2013-02-05 17:22:00,68.5,42.6,29.89,NE,37,8.0,9.0,39,0.00,,SKC,0.00,VWS V14.01,2013-02-06 00:22:00,
2013-02-05 17:27:00,68.3,42.4,29.89,NE,38,4.0,9.0,39,0.00,,SKC,0.00,VWS V14.01,2013-02-06 00:27:00,
2013-02-05 17:30:00,68.0,42.8,29.89,NE,46,8.0,9.0,40,0.00,,SKC,0.00,VWS V14.01,2013-02-06 00:30:00,
2013-02-05 17:32:00,68.0,42.8,29.89,NE,46,8.0,9.0,40,0.00,,SKC,0.00,VWS V14.01,2013-02-06 00:32:00,
2013-02-05 17:37:00,67.6,43.1,29.89,NE,35,9.0,10.0,41,0.00,,SKC,0.00,VWS V14.01,2013-02-06 00:37:00,
2013-02-05 17:42:00,67.2,42.7,29.89,NNE,32,6.0,10.0,41,0.00,,SKC,0.00,VWS V14.01,2013-02-06 00:42:00,
2013-02-05 17:45:00,66.9,42.5,29.89,NE,42,6.0,10.0,41,0.00,,SKC,0.00,VWS V14.01,2013-02-06 00:45:00,
2013-02-05 17:47:00,66.9,42.5,29.89,NE,42,6.0,10.0,41,0.00,,SKC,0.00,VWS V14.01,2013-02-06 00:47:00,
2013-02-05 17:52:00,66.6,42.8,29.89,NNE,18,5.0,8.0,42,0.00,,SKC,0.00,VWS V14.01,2013-02-06 00:52:00,
2013-02-05 17:57:00,66.2,42.5,29.89,NNE,33,3.0,8.0,42,0.00,,SKC,0.00,VWS V14.01,2013-02-06 00:57:00,
2013-02-05 18:00:00,65.8,42.7,29.89,ENE,63,1.0,8.0,43,0.00,,SKC,0.00,VWS V14.01,2013-02-06 01:00:00,
2013-02-05 18:02:00,65.8,42.7,29.89,ENE,61,4.0,4.0,43,0.00,,SKC,0.00,VWS V14.01,2013-02-06 01:02:00,
2013-02-05 18:08:00,65.4,42.3,29.89,NE,36,2.0,6.0,43,0.00,,SKC,0.00,VWS V14.01,2013-02-06 01:08:00,
2013-02-05 18:13:00,65.1,42.7,29.89,NNE,28,4.0,8.0,44,0.00,,SKC,0.00,VWS V14.01,2013-02-06 01:13:00,
2013-02-05 18:15:00,64.9,42.5,29.89,NE,42,3.0,8.0,44,0.00,,SKC,0.00,VWS V14.01,2013-02-06 01:15:00,
2013-02-05 18:18:00,64.9,42.5,29.89,NE,42,1.0,3.0,44,0.00,,SKC,0.00,VWS V14.01,2013-02-06 01:18:00,
2013-02-05 18:23:00,64.6,42.2,29.89,NE,40,3.0,5.0,44,0.00,,SKC,0.00,VWS V14.01,2013-02-06 01:23:00,
2013-02-05 18:28:00,64.3,41.9,29.90,NE,49,1.0,7.0,44,0.00,,SKC,0.00,VWS V14.01,2013-02-06 01:28:00,
2013-02-05 18:30:00,64.1,42.3,29.90,NNE,30,4.0,7.0,45,0.00,,SKC,0.00,VWS V14.01,2013-02-06 01:30:00,
2013-02-05 18:33:00,64.1,42.3,29.90,NNE,18,3.0,4.0,45,0.00,,SKC,0.00,VWS V14.01,2013-02-06 01:33:00,
2013-02-05 18:38:00,63.9,42.2,29.90,NE,34,2.0,7.0,45,0.00,,SKC,0.00,VWS V14.01,2013-02-06 01:38:00,
2013-02-05 18:43:00,63.9,42.2,29.90,NE,44,3.0,8.0,45,0.00,,SKC,0.00,VWS V14.01,2013-02-06 01:43:00,
2013-02-05 18:45:00,63.8,42.1,29.90,NE,40,2.0,8.0,45,0.00,,SKC,0.00,VWS V14.01,2013-02-06 01:45:00,
2013-02-05 18:48:00,63.8,42.1,29.91,NE,49,0.0,5.0,45,0.00,,SKC,0.00,VWS V14.01,2013-02-06 01:48:00,
2013-02-05 18:53:00,63.6,41.9,29.91,NE,44,0.0,5.0,45,0.00,,SKC,0.00,VWS V14.01,2013-02-06 01:53:00,
2013-02-05 18:58:00,63.3,42.2,29.91,NE,44,0.0,5.0,46,0.00,,SKC,0.00,VWS V14.01,2013-02-06 01:58:00,
2013-02-05 19:00:00,63.0,41.9,29.91,NE,44,0.0,5.0,46,0.00,,SKC,0.00,VWS V14.01,2013-02-06 02:00:00,
2013-02-05 19:03:00,62.9,41.8,29.91,NE,44,0.0,0.0,46,0.00,,SKC,0.00,VWS V14.01,2013-02-06 02:03:00,
2013-02-05 19:08:00,62.5,42.0,29.91,NE,44,0.0,0.0,47,0.00,,SKC,0.00,VWS V14.01,2013-02-06 02:08:00,
2013-02-05 19:14:00,62.1,41.7,29.91,NE,44,0.0,0.0,47,0.00,,SKC,0.00,VWS V14.01,2013-02-06 02:14:00,
2013-02-05 19:15:00,61.8,41.9,29.91,NE,44,0.0,0.0,48,0.00,,SKC,0.00,VWS V14.01,2013-02-06 02:15:00,
2013-02-05 19:19:00,61.6,41.7,29.91,NE,44,0.0,0.0,48,0.00,,SKC,0.00,VWS V14.01,2013-02-06 02:19:00,
2013-02-05 19:24:00,61.2,41.4,29.91,NE,44,0.0,0.0,48,0.00,,SKC,0.00,VWS V14.01,2013-02-06 02:24:00,
2013-02-05 19:29:00,60.9,41.6,29.91,NE,44,0.0,0.0,49,0.00,,SKC,0.00,VWS V14.01,2013-02-06 02:29:00,
2013-02-05 19:30:00,60.7,41.5,29.91,NE,44,0.0,0.0,49,0.00,,SKC,0.00,VWS V14.01,2013-02-06 02:30:00,
2013-02-05 19:34:00,60.6,41.4,29.91,NE,44,0.0,0.0,49,0.00,,SKC,0.00,VWS V14.01,2013-02-06 02:34:00,
2013-02-05 19:39:00,60.1,41.4,29.91,NE,44,0.0,0.0,50,0.00,,SKC,0.00,VWS V14.01,2013-02-06 02:39:00,
2013-02-05 19:44:00,59.7,41.6,29.91,NE,44,0.0,0.0,51,0.00,,SKC,0.00,VWS V14.01,2013-02-06 02:44:00,
2013-02-05 19:45:00,59.6,41.5,29.91,NE,44,0.0,0.0,51,0.00,,SKC,0.00,VWS V14.01,2013-02-06 02:45:00,
2013-02-05 19:49:00,59.6,41.5,29.91,NE,44,0.0,0.0,51,0.00,,SKC,0.00,VWS V14.01,2013-02-06 02:49:00,
2013-02-05 19:54:00,59.5,41.4,29.91,NE,44,0.0,0.0,51,0.00,,SKC,0.00,VWS V14.01,2013-02-06 02:54:00,
2013-02-05 19:59:00,59.3,41.2,29.91,NE,44,0.0,0.0,51,0.00,,SKC,0.00,VWS V14.01,2013-02-06 02:59:00,
2013-02-05 20:00:00,59.2,41.1,29.91,NE,44,0.0,0.0,51,0.00,,SKC,0.00,VWS V14.01,2013-02-06 03:00:00,
2013-02-05 20:04:00,59.1,41.5,29.91,NE,44,0.0,0.0,52,0.00,,SKC,0.00,VWS V14.01,2013-02-06 03:04:00,
2013-02-05 20:09:00,59.0,41.4,29.91,NE,44,0.0,0.0,52,0.00,,SKC,0.00,VWS V14.01,2013-02-06 03:09:00,
2013-02-05 20:14:00,58.5,41.0,29.91,NE,44,0.0,0.0,52,0.00,,SKC,0.00,VWS V14.01,2013-02-06 03:14:00,
2013-02-05 20:15:00,58.1,41.6,29.91,NE,44,0.0,0.0,54,0.00,,SKC,0.00,VWS V14.01,2013-02-06 03:15:00,
2013-02-05 20:20:00,57.7,41.2,29.91,NE,44,0.0,0.0,54,0.00,,SKC,0.00,VWS V14.01,2013-02-06 03:20:00,
2013-02-05 20:25:00,57.3,41.3,29.91,NE,44,0.0,0.0,55,0.00,,SKC,0.00,VWS V14.01,2013-02-06 03:25:00,
2013-02-05 20:30:00,57.3,41.3,29.91,NE,44,0.0,0.0,55,0.00,,SKC,0.00,VWS V14.01,2013-02-06 03:30:00,
2013-02-05 20:35:00,57.1,41.1,29.92,NE,44,0.0,1.0,55,0.00,,SKC,0.00,VWS V14.01,2013-02-06 03:35:00,
2013-02-05 20:40:00,56.9,41.4,29.92,NE,44,0.0,1.0,56,0.00,,SKC,0.00,VWS V14.01,2013-02-06 03:40:00,
2013-02-05 20:45:00,56.6,41.1,29.92,NE,44,0.0,1.0,56,0.00,,SKC,0.00,VWS V14.01,2013-02-06 03:45:00,
2013-02-05 20:50:00,56.2,41.2,29.92,NE,44,0.0,0.0,57,0.00,,SKC,0.00,VWS V14.01,2013-02-06 03:50:00,
2013-02-05 20:55:00,55.9,41.3,29.92,NE,44,0.0,0.0,58,0.00,,SKC,0.00,VWS V14.01,2013-02-06 03:55:00,
2013-02-05 21:00:00,55.8,41.3,29.92,NE,44,0.0,0.0,58,0.00,,SKC,0.00,VWS V14.01,2013-02-06 04:00:00,
2013-02-05 21:05:00,55.7,41.2,29.92,NE,44,0.0,0.0,58,0.00,,SKC,0.00,VWS V14.01,2013-02-06 04:05:00,
2013-02-05 21:10:00,55.7,41.2,29.92,NE,44,0.0,0.0,58,0.00,,SKC,0.00,VWS V14.01,2013-02-06 04:10:00,
2013-02-05 21:15:00,55.5,41.0,29.92,NE,44,0.0,0.0,58,0.00,,SKC,0.00,VWS V14.01,2013-02-06 04:15:00,
2013-02-05 21:20:00,55.2,41.1,29.93,NE,44,0.0,0.0,59,0.00,,SKC,0.00,VWS V14.01,2013-02-06 04:20:00,
2013-02-05 21:25:00,54.9,40.9,29.93,NE,44,0.0,0.0,59,0.00,,SKC,0.00,VWS V14.01,2013-02-06 04:25:00,
2013-02-05 21:30:00,54.7,41.1,29.93,NE,44,0.0,0.0,60,0.00,,SKC,0.00,VWS V14.01,2013-02-06 04:30:00,
2013-02-05 21:36:00,54.5,40.9,29.93,NE,44,0.0,0.0,60,0.00,,SKC,0.00,VWS V14.01,2013-02-06 04:36:00,
2013-02-05 21:41:00,54.2,41.1,29.93,NE,44,0.0,0.0,61,0.00,,SKC,0.00,VWS V14.01,2013-02-06 04:41:00,
2013-02-05 21:45:00,53.9,40.8,29.93,NE,44,0.0,0.0,61,0.00,,SKC,0.00,VWS V14.01,2013-02-06 04:45:00,
2013-02-05 21:46:00,54.0,40.9,29.93,NE,44,0.0,0.0,61,0.00,,SKC,0.00,VWS V14.01,2013-02-06 04:46:00,
2013-02-05 21:51:00,53.7,40.6,29.93,NE,44,0.0,0.0,61,0.00,,SKC,0.00,VWS V14.01,2013-02-06 04:51:00,
2013-02-05 21:56:00,53.6,40.9,29.93,NE,44,0.0,0.0,62,0.00,,SKC,0.00,VWS V14.01,2013-02-06 04:56:00,
2013-02-05 22:00:00,53.6,40.5,29.93,NE,44,0.0,0.0,61,0.00,,SKC,0.00,VWS V14.01,2013-02-06 05:00:00,
2013-02-05 22:01:00,53.5,40.4,29.93,NE,44,0.0,0.0,61,0.00,,SKC,0.00,VWS V14.01,2013-02-06 05:01:00,
2013-02-05 22:06:00,53.2,40.5,29.93,NE,44,0.0,0.0,62,0.00,,SKC,0.00,VWS V14.01,2013-02-06 05:06:00,
2013-02-05 22:11:00,52.8,40.2,29.93,NE,44,1.0,2.0,62,0.00,,SKC,0.00,VWS V14.01,2013-02-06 05:11:00,
2013-02-05 22:15:00,52.5,40.3,29.93,NE,44,0.0,2.0,63,0.00,,SKC,0.00,VWS V14.01,2013-02-06 05:15:00,
2013-02-05 22:16:00,52.6,40.4,29.93,NE,44,0.0,2.0,63,0.00,,SKC,0.00,VWS V14.01,2013-02-06 05:16:00,
2013-02-05 22:21:00,52.4,40.2,29.93,NE,44,0.0,0.0,63,0.00,,SKC,0.00,VWS V14.01,2013-02-06 05:21:00,
2013-02-05 22:26:00,52.5,40.7,29.93,NE,44,0.0,0.0,64,0.00,,SKC,0.00,VWS V14.01,2013-02-06 05:26:00,
2013-02-05 22:30:00,53.0,40.8,29.93,NE,44,0.0,2.0,63,0.00,,SKC,0.00,VWS V14.01,2013-02-06 05:30:00,
2013-02-05 22:31:00,53.0,40.8,29.93,NE,44,0.0,2.0,63,0.00,,SKC,0.00,VWS V14.01,2013-02-06 05:31:00,
2013-02-05 22:36:00,53.2,40.5,29.93,NE,44,0.0,0.0,62,0.00,,SKC,0.00,VWS V14.01,2013-02-06 05:36:00,
2013-02-05 22:41:00,53.2,40.5,29.93,NE,44,0.0,0.0,62,0.00,,SKC,0.00,VWS V14.01,2013-02-06 05:41:00,
2013-02-05 22:45:00,53.3,40.6,29.93,NE,44,0.0,0.0,62,0.00,,SKC,0.00,VWS V14.01,2013-02-06 05:45:00,
2013-02-05 22:47:00,53.3,40.6,29.93,NE,44,0.0,0.0,62,0.00,,SKC,0.00,VWS V14.01,2013-02-06 05:47:00,
2013-02-05 22:52:00,53.4,40.7,29.93,NE,44,0.0,0.0,62,0.00,,SKC,0.00,VWS V14.01,2013-02-06 05:52:00,
2013-02-05 22:57:00,53.5,40.8,29.93,NE,44,0.0,0.0,62,0.00,,SKC,0.00,VWS V14.01,2013-02-06 05:57:00,
2013-02-05 23:00:00,53.3,40.6,29.93,NE,44,0.0,0.0,62,0.00,,SKC,0.00,VWS V14.01,2013-02-06 06:00:00,
2013-02-05 23:02:00,53.3,40.6,29.93,NE,44,0.0,0.0,62,0.00,,SKC,0.00,VWS V14.01,2013-02-06 06:02:00,
2013-02-05 23:07:00,52.8,40.6,29.93,NE,44,0.0,0.0,63,0.00,,SKC,0.00,VWS V14.01,2013-02-06 06:07:00,
2013-02-05 23:12:00,52.4,40.2,29.93,NE,44,0.0,0.0,63,0.00,,SKC,0.00,VWS V14.01,2013-02-06 06:12:00,
2013-02-05 23:15:00,52.0,40.6,29.93,NE,44,0.0,0.0,65,0.00,,SKC,0.00,VWS V14.01,2013-02-06 06:15:00,
2013-02-05 23:17:00,52.0,40.6,29.93,NE,44,0.0,0.0,65,0.00,,SKC,0.00,VWS V14.01,2013-02-06 06:17:00,
2013-02-05 23:22:00,51.7,40.3,29.93,NE,44,0.0,0.0,65,0.00,,SKC,0.00,VWS V14.01,2013-02-06 06:22:00,
2013-02-05 23:27:00,51.4,40.0,29.94,NE,44,0.0,0.0,65,0.00,,SKC,0.00,VWS V14.01,2013-02-06 06:27:00,
2013-02-05 23:30:00,51.2,40.2,29.94,NE,44,0.0,0.0,66,0.00,,SKC,0.00,VWS V14.01,2013-02-06 06:30:00,
2013-02-05 23:32:00,51.2,40.2,29.94,NE,44,0.0,0.0,66,0.00,,SKC,0.00,VWS V14.01,2013-02-06 06:32:00,
2013-02-05 23:37:00,50.8,39.9,29.93,NE,44,0.0,0.0,66,0.00,,SKC,0.00,VWS V14.01,2013-02-06 06:37:00,
2013-02-05 23:42:00,50.3,39.8,29.93,NE,44,0.0,0.0,67,0.00,,SKC,0.00,VWS V14.01,2013-02-06 06:42:00,
2013-02-05 23:45:00,50.0,39.9,29.93,NE,44,0.0,0.0,68,0.00,,SKC,0.00,VWS V14.01,2013-02-06 06:45:00,
2013-02-05 23:47:00,50.0,39.9,29.93,NE,44,0.0,0.0,68,0.00,,SKC,0.00,VWS V14.01,2013-02-06 06:47:00,
2013-02-05 23:52:00,49.7,40.0,29.93,NE,44,0.0,2.0,69,0.00,,SKC,0.00,VWS V14.01,2013-02-06 06:52:00,
2013-02-05 23:57:00,49.7,40.0,29.93,NE,44,0.0,2.0,69,0.00,,SKC,0.00,VWS V14.01,2013-02-06 06:57:00,